TimeCDT,TemperatureF,Dew PointF,Humidity,Sea Level PressureIn,VisibilityMPH,Wind Direction,Wind SpeedMPH,Gust SpeedMPH,PrecipitationIn,Events,Conditions,WindDirDegrees,DateUTC
12:15 AM,75.2,72.5,91,29.97,10.0,ESE,3.5,-,N/A,Rain,Light Rain,120,2013-09-20 05:15:00
12:35 AM,75.4,72.1,90,29.96,10.0,SE,3.5,-,N/A,,Scattered Clouds,130,2013-09-20 05:35:00
12:55 AM,75.2,72.1,90,29.96,10.0,SE,5.8,-,N/A,,Clear,130,2013-09-20 05:55:00
1:15 AM,75.4,72.5,91,29.96,10.0,SE,3.5,-,N/A,,Clear,140,2013-09-20 06:15:00
1:35 AM,75.4,72.5,91,29.95,10.0,SE,4.6,-,N/A,,Clear,130,2013-09-20 06:35:00
1:55 AM,75.6,72.5,90,29.95,10.0,SE,4.6,-,N/A,,Scattered Clouds,130,2013-09-20 06:55:00
2:15 AM,75.7,72.5,90,29.94,10.0,SE,4.6,-,N/A,,Scattered Clouds,140,2013-09-20 07:15:00
2:35 AM,75.6,72.5,90,29.94,10.0,SE,4.6,-,N/A,,Scattered Clouds,140,2013-09-20 07:35:00
2:55 AM,75.6,72.5,90,29.94,10.0,ESE,5.8,-,N/A,,Scattered Clouds,120,2013-09-20 07:55:00
3:15 AM,75.6,72.5,90,29.93,10.0,SE,6.9,-,N/A,,Mostly Cloudy,130,2013-09-20 08:15:00
3:35 AM,75.6,72.5,90,29.93,10.0,SE,5.8,-,N/A,,Mostly Cloudy,140,2013-09-20 08:35:00
3:55 AM,75.6,72.5,90,29.93,10.0,SSE,4.6,-,N/A,,Overcast,150,2013-09-20 08:55:00
4:15 AM,75.6,72.5,90,29.93,4.0,SE,6.9,-,0.09,Rain,Heavy Rain,140,2013-09-20 09:15:00
4:35 AM,75.4,72.5,91,29.91,10.0,SE,5.8,-,0.11,Rain,Light Rain,140,2013-09-20 09:35:00
4:55 AM,75.2,72.3,91,29.91,10.0,SSE,5.8,-,0.11,,Overcast,150,2013-09-20 09:55:00
5:15 AM,75.2,72.5,91,29.91,10.0,SSE,3.5,-,N/A,,Overcast,150,2013-09-20 10:15:00
5:35 AM,75.2,72.5,91,29.89,10.0,SE,4.6,-,N/A,,Overcast,130,2013-09-20 10:35:00
5:55 AM,75.2,72.5,91,29.89,10.0,Calm,Calm,-,N/A,,Overcast,0,2013-09-20 10:55:00
6:15 AM,75.2,72.7,92,29.90,7.0,SE,5.8,-,N/A,,Overcast,140,2013-09-20 11:15:00
6:35 AM,75.2,72.5,91,29.90,7.0,SSE,3.5,-,N/A,,Overcast,160,2013-09-20 11:35:00
6:55 AM,75.4,72.7,91,29.91,7.0,SE,5.8,-,N/A,Rain,Light Rain,140,2013-09-20 11:55:00
7:15 AM,75.4,72.7,91,29.91,7.0,SSE,3.5,-,N/A,Rain,Rain,150,2013-09-20 12:15:00
7:35 AM,75.6,72.9,91,29.92,4.0,SSE,3.5,-,0.02,Rain,Light Rain,160,2013-09-20 12:35:00
7:55 AM,75.6,73.0,92,29.92,3.0,SSE,4.6,-,0.06,Rain,Rain,150,2013-09-20 12:55:00
8:15 AM,75.6,73.0,92,29.91,4.0,SE,5.8,-,0.02,Rain,Light Rain,140,2013-09-20 13:15:00
8:35 AM,75.7,73.4,92,29.91,7.0,SE,5.8,-,0.02,Rain,Light Rain,130,2013-09-20 13:35:00
8:55 AM,75.9,73.2,91,29.90,7.0,SE,5.8,-,0.02,,Overcast,140,2013-09-20 13:55:00
9:15 AM,75.7,73.0,91,29.90,4.0,SSE,5.8,-,0.02,Rain,Rain,150,2013-09-20 14:15:00
9:35 AM,75.7,73.0,91,29.90,4.0,SE,6.9,-,0.06,Rain,Rain,130,2013-09-20 14:35:00
9:55 AM,76.6,73.8,91,29.89,10.0,SSE,3.5,-,0.06,,Light Drizzle,150,2013-09-20 14:55:00
10:15 AM,77.0,73.8,90,29.90,10.0,SSE,4.6,-,0.01,,Overcast,160,2013-09-20 15:15:00
10:35 AM,76.8,73.6,90,29.90,10.0,South,3.5,-,0.01,Rain,Light Rain,170,2013-09-20 15:35:00
10:55 AM,77.0,73.8,90,29.90,7.0,SSE,4.6,-,0.04,Rain,Rain,150,2013-09-20 15:55:00
11:15 AM,77.2,74.3,91,29.89,7.0,SE,4.6,-,0.01,Rain,Light Rain,140,2013-09-20 16:15:00
11:35 AM,77.4,74.3,90,29.89,7.0,SSE,3.5,-,0.01,Rain,Light Rain,160,2013-09-20 16:35:00
11:55 AM,77.7,74.5,90,29.88,7.0,Calm,Calm,-,0.02,Rain,Light Rain,0,2013-09-20 16:55:00
12:15 PM,77.7,74.3,89,29.88,7.0,SSE,4.6,-,0.01,,Drizzle,160,2013-09-20 17:15:00
12:35 PM,77.5,74.5,90,29.88,5.0,South,5.8,-,0.02,Rain,Rain,170,2013-09-20 17:35:00
12:55 PM,77.2,74.3,91,29.88,2.0,South,4.6,-,0.13,Rain,Heavy Rain,190,2013-09-20 17:55:00
1:15 PM,77.0,74.3,91,29.86,3.0,SE,3.5,-,0.05,Rain,Rain,140,2013-09-20 18:15:00
1:35 PM,77.2,74.3,91,29.84,2.5,Calm,Calm,-,0.11,Rain,Heavy Rain,0,2013-09-20 18:35:00
1:55 PM,77.2,74.5,91,29.84,1.8,Calm,Calm,-,0.21,Rain,Heavy Rain,0,2013-09-20 18:55:00
2:15 PM,77.4,74.5,91,29.83,5.0,Calm,Calm,-,0.03,Rain,Rain,0,2013-09-20 19:15:00
2:35 PM,77.4,74.5,91,29.84,5.0,Calm,Calm,-,0.05,Rain,Light Rain,0,2013-09-20 19:35:00
2:55 PM,77.4,74.3,90,29.83,5.0,North,10.4,-,0.07,Rain,Light Rain,360,2013-09-20 19:55:00
3:15 PM,72.3,69.3,90,29.82,3.0,North,9.2,-,0.11,Rain,Heavy Rain,10,2013-09-20 20:15:00
3:35 PM,71.1,68.4,91,29.81,4.0,North,10.4,16.1,0.24,Rain,Heavy Rain,360,2013-09-20 20:35:00
3:55 PM,70.7,68.0,91,29.84,1.2,NNW,8.1,-,0.52,Rain,Heavy Rain,340,2013-09-20 20:55:00
4:15 PM,70.3,68.0,92,29.82,1.0,North,16.1,21.9,0.42,Rain,Heavy Rain,350,2013-09-20 21:15:00
4:35 PM,70.2,67.6,92,29.82,1.5,NNE,8.1,-,0.79,Rain,Heavy Rain,30,2013-09-20 21:35:00
4:55 PM,70.2,67.6,92,29.83,1.5,East,4.6,-,1.06,Rain,Heavy Rain,80,2013-09-20 21:55:00
5:15 PM,70.2,67.6,92,29.82,5.0,East,5.8,-,0.07,Rain,Rain,90,2013-09-20 22:15:00
5:35 PM,70.3,67.8,92,29.82,5.0,ENE,4.6,-,0.14,Rain,Rain,70,2013-09-20 22:35:00
5:55 PM,70.3,67.6,91,29.82,7.0,ENE,3.5,-,0.20,Rain,Rain,60,2013-09-20 22:55:00
6:15 PM,70.3,68.0,92,29.83,4.0,Calm,Calm,-,0.05,Rain,Heavy Rain,0,2013-09-20 23:15:00
6:35 PM,70.2,67.8,92,29.83,5.0,East,3.5,-,0.11,Rain,Heavy Rain,80,2013-09-20 23:35:00
6:55 PM,70.2,67.6,92,29.82,5.0,Calm,Calm,-,0.18,Rain,Rain,0,2013-09-20 23:55:00
7:15 PM,70.2,67.6,92,29.82,10.0,Calm,Calm,-,0.01,Rain,Light Rain,0,2013-09-21 00:15:00
7:35 PM,70.2,68.0,93,29.83,10.0,Calm,Calm,-,0.03,Rain,Light Rain,0,2013-09-21 00:35:00
7:55 PM,70.2,68.0,93,29.83,10.0,Calm,Calm,-,0.04,Rain,Light Rain,0,2013-09-21 00:55:00
8:15 PM,70.2,68.0,93,29.84,10.0,East,3.5,-,0.01,Rain,Light Rain,80,2013-09-21 01:15:00
8:35 PM,70.2,68.0,93,29.85,10.0,Calm,Calm,-,0.02,Rain,Light Rain,0,2013-09-21 01:35:00
8:55 PM,70.2,68.0,93,29.86,10.0,Calm,Calm,-,0.03,Rain,Light Rain,0,2013-09-21 01:55:00
9:15 PM,70.3,68.0,92,29.86,10.0,Calm,Calm,-,0.01,Rain,Light Rain,0,2013-09-21 02:15:00
9:35 PM,69.8,67.5,92,29.85,10.0,Calm,Calm,-,0.02,Rain,Light Rain,0,2013-09-21 02:35:00
9:55 PM,70.0,67.6,92,29.85,10.0,Calm,Calm,-,0.03,Rain,Rain,0,2013-09-21 02:55:00
10:15 PM,69.8,67.5,92,29.83,10.0,Calm,Calm,-,0.01,,Light Drizzle,0,2013-09-21 03:15:00
10:35 PM,69.8,67.5,92,29.83,10.0,North,3.5,-,0.01,,Clear,360,2013-09-21 03:35:00
10:55 PM,69.8,67.3,92,29.83,10.0,Calm,Calm,-,0.01,,Clear,0,2013-09-21 03:55:00
11:15 PM,69.8,67.5,92,29.83,10.0,Calm,Calm,-,N/A,,Mostly Cloudy,0,2013-09-21 04:15:00
11:35 PM,70.0,67.6,92,29.82,10.0,North,3.5,-,N/A,,Overcast,350,2013-09-21 04:35:00
11:55 PM,70.0,67.8,93,29.83,10.0,NW,4.6,-,N/A,,Overcast,310,2013-09-21 04:55:00